Time,TemperatureF,DewpointF,PressureIn,WindDirection,WindDirectionDegrees,WindSpeedMPH,WindSpeedGustMPH,Humidity,HourlyPrecipIn,Conditions,Clouds,dailyrainin,SolarRadiationWatts/m^2,SoftwareType,DateUTC
2013-05-17 00:00:00,54.4,26.3,29.64,SW,226,2.0,-999.0,22,-99.99,,,0.00,0.0,cwc,2013-05-17 06:00:00,
2013-05-17 00:05:00,53.8,25.7,29.65,SW,227,0.0,-999.0,22,-99.99,,,0.00,0.0,cwc,2013-05-17 06:05:00,
2013-05-17 00:10:00,53.5,25.4,29.65,SW,227,2.0,-999.0,22,-99.99,,,0.00,0.0,cwc,2013-05-17 06:10:00,
2013-05-17 00:15:00,53.0,24.9,29.65,SW,227,3.0,-999.0,22,-99.99,,,0.00,0.0,cwc,2013-05-17 06:15:00,
2013-05-17 00:20:00,52.5,24.8,29.65,SW,227,2.0,-999.0,23,-99.99,,,0.00,0.0,cwc,2013-05-17 06:20:00,
2013-05-17 00:25:00,52.0,24.3,29.65,SW,226,2.0,-999.0,23,-99.99,,,0.00,0.0,cwc,2013-05-17 06:25:00,
2013-05-17 00:30:00,51.6,23.9,29.66,SW,227,0.0,-999.0,23,-99.99,,,0.00,0.0,cwc,2013-05-17 06:30:00,
2013-05-17 00:35:00,51.5,23.8,29.66,SW,226,1.0,-999.0,23,-99.99,,,0.00,0.0,cwc,2013-05-17 06:35:00,
2013-05-17 00:40:00,51.7,24.0,29.66,SW,227,0.0,-999.0,23,-99.99,,,0.00,0.0,cwc,2013-05-17 06:40:00,
2013-05-17 00:45:00,51.4,23.7,29.66,SW,227,4.0,-999.0,23,-99.99,,,0.00,0.0,cwc,2013-05-17 06:45:00,
2013-05-17 00:50:00,51.0,23.3,29.66,SW,227,1.0,-999.0,23,-99.99,,,0.00,0.0,cwc,2013-05-17 06:50:00,
2013-05-17 00:55:00,50.8,23.4,29.67,SW,227,3.0,-999.0,24,-99.99,,,0.00,0.0,cwc,2013-05-17 06:55:00,
2013-05-17 01:00:00,50.7,23.3,29.67,SW,226,1.0,-999.0,24,-99.99,,,0.00,0.0,cwc,2013-05-17 07:00:00,
2013-05-17 01:05:00,50.6,23.2,29.67,SW,227,3.0,-999.0,24,-99.99,,,0.00,0.0,cwc,2013-05-17 07:05:00,
2013-05-17 01:10:00,50.7,23.0,29.67,SW,227,3.0,-999.0,23,-99.99,,,0.00,0.0,cwc,2013-05-17 07:10:00,
2013-05-17 01:15:00,51.1,23.4,29.67,SW,227,2.0,-999.0,23,-99.99,,,0.00,0.0,cwc,2013-05-17 07:15:00,
2013-05-17 01:20:00,51.1,23.4,29.67,SW,226,2.0,-999.0,23,-99.99,,,0.00,0.0,cwc,2013-05-17 07:20:00,
2013-05-17 01:25:00,50.9,23.5,29.67,SW,227,1.0,-999.0,24,-99.99,,,0.00,0.0,cwc,2013-05-17 07:25:00,
2013-05-17 01:30:00,50.4,23.0,29.68,SW,227,1.0,-999.0,24,-99.99,,,0.00,0.0,cwc,2013-05-17 07:30:00,
2013-05-17 01:35:00,49.8,22.4,29.67,SW,226,4.0,-999.0,24,-99.99,,,0.00,0.0,cwc,2013-05-17 07:35:00,
2013-05-17 01:40:00,49.5,22.1,29.68,SW,227,3.0,-999.0,24,-99.99,,,0.00,0.0,cwc,2013-05-17 07:40:00,
2013-05-17 01:45:00,49.4,22.4,29.68,SW,227,2.0,-999.0,25,-99.99,,,0.00,0.0,cwc,2013-05-17 07:45:00,
2013-05-17 01:50:00,49.1,22.1,29.68,SW,227,1.0,-999.0,25,-99.99,,,0.00,0.0,cwc,2013-05-17 07:50:00,
2013-05-17 01:55:00,49.0,22.0,29.68,SW,226,0.0,-999.0,25,-99.99,,,0.00,0.0,cwc,2013-05-17 07:55:00,
2013-05-17 02:00:00,48.8,21.8,29.68,SW,227,2.0,-999.0,25,-99.99,,,0.00,0.0,cwc,2013-05-17 08:00:00,
2013-05-17 02:15:00,47.9,21.3,29.69,SW,227,2.0,-999.0,26,-99.99,,,0.00,0.0,cwc,2013-05-17 08:15:00,
2013-05-17 02:20:00,47.5,20.9,29.69,SW,227,3.0,-999.0,26,-99.99,,,0.00,0.0,cwc,2013-05-17 08:20:00,
2013-05-17 02:30:00,47.3,20.7,29.69,SW,227,0.0,-999.0,26,-99.99,,,0.00,0.0,cwc,2013-05-17 08:30:00,
2013-05-17 02:35:00,47.1,20.5,29.69,SW,227,3.0,-999.0,26,-99.99,,,0.00,0.0,cwc,2013-05-17 08:35:00,
2013-05-17 02:40:00,46.7,20.4,29.69,SW,227,1.0,-999.0,27,-99.99,,,0.00,0.0,cwc,2013-05-17 08:40:00,
2013-05-17 02:50:00,46.1,19.8,29.70,SW,226,2.0,-999.0,27,-99.99,,,0.00,0.0,cwc,2013-05-17 08:50:00,
2013-05-17 02:55:00,46.0,19.7,29.70,SW,226,4.0,-999.0,27,-99.99,,,0.00,0.0,cwc,2013-05-17 08:55:00,
2013-05-17 03:05:00,46.0,19.7,29.70,SW,227,0.0,-999.0,27,-99.99,,,0.00,0.0,cwc,2013-05-17 09:05:00,
2013-05-17 03:10:00,45.6,19.7,29.70,SW,226,0.0,-999.0,28,-99.99,,,0.00,0.0,cwc,2013-05-17 09:10:00,
2013-05-17 03:15:00,45.4,19.5,29.70,SW,227,0.0,-999.0,28,-99.99,,,0.00,0.0,cwc,2013-05-17 09:15:00,
2013-05-17 03:20:00,45.4,19.5,29.70,SW,227,0.0,-999.0,28,-99.99,,,0.00,0.0,cwc,2013-05-17 09:20:00,
2013-05-17 03:25:00,45.3,19.4,29.70,SW,226,3.0,-999.0,28,-99.99,,,0.00,0.0,cwc,2013-05-17 09:25:00,
2013-05-17 03:30:00,45.3,19.4,29.70,SW,226,3.0,-999.0,28,-99.99,,,0.00,0.0,cwc,2013-05-17 09:30:00,
2013-05-17 03:35:00,45.4,19.5,29.70,SW,227,3.0,-999.0,28,-99.99,,,0.00,0.0,cwc,2013-05-17 09:35:00,
2013-05-17 03:45:00,45.0,19.1,29.71,SW,227,1.0,-999.0,28,-99.99,,,0.00,0.0,cwc,2013-05-17 09:45:00,
2013-05-17 03:50:00,45.0,19.1,29.71,SW,226,0.0,-999.0,28,-99.99,,,0.00,0.0,cwc,2013-05-17 09:50:00,
2013-05-17 03:55:00,45.1,19.2,29.72,SW,227,1.0,-999.0,28,-99.99,,,0.00,0.0,cwc,2013-05-17 09:55:00,
2013-05-17 04:00:00,45.0,19.1,29.72,SW,227,3.0,-999.0,28,-99.99,,,0.00,0.0,cwc,2013-05-17 10:00:00,
2013-05-17 04:05:00,44.8,18.9,29.72,SW,227,3.0,-999.0,28,-99.99,,,0.00,0.0,cwc,2013-05-17 10:05:00,
2013-05-17 04:10:00,44.5,18.9,29.72,SW,226,2.0,-999.0,29,-99.99,,,0.00,0.0,cwc,2013-05-17 10:10:00,
2013-05-17 04:15:00,44.2,18.6,29.72,SW,227,3.0,-999.0,29,-99.99,,,0.00,0.0,cwc,2013-05-17 10:15:00,
2013-05-17 04:20:00,44.1,18.5,29.72,SW,227,0.0,-999.0,29,-99.99,,,0.00,0.0,cwc,2013-05-17 10:20:00,
2013-05-17 04:25:00,43.7,18.5,29.73,SW,226,4.0,-999.0,30,-99.99,,,0.00,0.0,cwc,2013-05-17 10:25:00,
2013-05-17 04:30:00,43.6,18.4,29.73,SW,227,2.0,-999.0,30,-99.99,,,0.00,0.0,cwc,2013-05-17 10:30:00,
2013-05-17 04:35:00,43.5,18.3,29.73,SW,227,3.0,-999.0,30,-99.99,,,0.00,0.0,cwc,2013-05-17 10:35:00,
2013-05-17 04:40:00,43.8,18.6,29.73,SW,227,1.0,-999.0,30,-99.99,,,0.00,0.0,cwc,2013-05-17 10:40:00,
2013-05-17 04:50:00,43.9,18.7,29.73,SW,227,3.0,-999.0,30,-99.99,,,0.00,0.0,cwc,2013-05-17 10:50:00,
2013-05-17 04:55:00,43.7,18.5,29.73,SW,227,2.0,-999.0,30,-99.99,,,0.00,0.0,cwc,2013-05-17 10:55:00,
2013-05-17 05:00:00,43.5,18.7,29.73,SW,226,0.0,-999.0,31,-99.99,,,0.00,0.0,cwc,2013-05-17 11:00:00,
2013-05-17 05:05:00,43.1,18.3,29.74,SW,227,3.0,-999.0,31,-99.99,,,0.00,0.0,cwc,2013-05-17 11:05:00,
2013-05-17 05:10:00,43.0,18.2,29.74,SW,227,0.0,-999.0,31,-99.99,,,0.00,0.0,cwc,2013-05-17 11:10:00,
2013-05-17 05:15:00,43.0,17.8,29.74,SW,227,0.0,-999.0,30,-99.99,,,0.00,0.0,cwc,2013-05-17 11:15:00,
2013-05-17 05:20:00,42.6,17.8,29.74,SW,226,0.0,-999.0,31,-99.99,,,0.00,0.0,cwc,2013-05-17 11:20:00,
2013-05-17 05:25:00,42.0,17.5,29.75,SW,226,2.0,-999.0,32,-99.99,,,0.00,0.0,cwc,2013-05-17 11:25:00,
2013-05-17 05:30:00,41.5,17.0,29.75,SW,227,2.0,-999.0,32,-99.99,,,0.00,0.0,cwc,2013-05-17 11:30:00,
2013-05-17 05:35:00,41.0,17.2,29.75,SW,226,0.0,-999.0,34,-99.99,,,0.00,0.0,cwc,2013-05-17 11:35:00,
2013-05-17 05:40:00,40.9,16.8,29.75,SW,226,4.0,-999.0,33,-99.99,,,0.00,0.0,cwc,2013-05-17 11:40:00,
2013-05-17 05:45:00,41.0,16.9,29.75,SW,226,0.0,-999.0,33,-99.99,,,0.00,0.0,cwc,2013-05-17 11:45:00,
2013-05-17 05:50:00,41.0,16.9,29.76,SW,227,1.0,-999.0,33,-99.99,,,0.00,0.0,cwc,2013-05-17 11:50:00,
2013-05-17 05:55:00,41.1,17.3,29.76,SW,227,0.0,-999.0,34,-99.99,,,0.00,0.0,cwc,2013-05-17 11:55:00,
2013-05-17 06:00:00,40.9,17.5,29.76,SW,226,1.0,-999.0,35,-99.99,,,0.00,5.0,cwc,2013-05-17 12:00:00,
2013-05-17 06:05:00,40.5,16.7,29.76,SW,227,0.0,-999.0,34,-99.99,,,0.00,7.0,cwc,2013-05-17 12:05:00,
2013-05-17 06:10:00,40.2,16.4,29.77,SW,227,0.0,-999.0,34,-99.99,,,0.00,11.0,cwc,2013-05-17 12:10:00,
2013-05-17 06:20:00,40.7,16.6,29.77,SW,226,2.0,-999.0,33,-99.99,,,0.00,18.0,cwc,2013-05-17 12:20:00,
2013-05-17 06:30:00,41.2,17.4,29.78,SW,227,3.0,-999.0,34,-99.99,,,0.00,46.0,cwc,2013-05-17 12:30:00,
2013-05-17 06:35:00,41.6,17.5,29.78,SW,226,0.0,-999.0,33,-99.99,,,0.00,35.0,cwc,2013-05-17 12:35:00,
2013-05-17 06:40:00,41.9,19.2,29.78,SW,227,0.0,-999.0,37,-99.99,,,0.00,33.0,cwc,2013-05-17 12:40:00,
2013-05-17 06:45:00,42.1,18.7,29.78,SW,227,0.0,-999.0,35,-99.99,,,0.00,65.0,cwc,2013-05-17 12:45:00,
2013-05-17 06:50:00,42.4,18.6,29.78,SW,226,1.0,-999.0,34,-99.99,,,0.00,113.0,cwc,2013-05-17 12:50:00,
2013-05-17 06:55:00,42.8,19.0,29.78,SW,226,1.0,-999.0,34,-99.99,,,0.00,134.0,cwc,2013-05-17 12:55:00,
2013-05-17 07:00:00,43.4,19.6,29.78,SW,227,0.0,-999.0,34,-99.99,,,0.00,156.0,cwc,2013-05-17 13:00:00,
2013-05-17 07:05:00,44.3,22.0,29.78,SW,227,1.0,-999.0,38,-99.99,,,0.00,179.0,cwc,2013-05-17 13:05:00,
2013-05-17 07:10:00,45.1,21.7,29.78,SW,227,3.0,-999.0,35,-99.99,,,0.00,200.0,cwc,2013-05-17 13:10:00,
2013-05-17 07:15:00,46.4,21.9,29.78,SW,226,1.0,-999.0,32,-99.99,,,0.00,220.0,cwc,2013-05-17 13:15:00,
2013-05-17 07:20:00,47.6,22.4,29.78,SW,227,2.0,-999.0,30,-99.99,,,0.00,241.0,cwc,2013-05-17 13:20:00,
2013-05-17 07:25:00,48.7,23.5,29.78,SW,227,2.0,-999.0,30,-99.99,,,0.00,260.0,cwc,2013-05-17 13:25:00,
2013-05-17 07:30:00,49.6,24.4,29.78,SW,229,1.0,-999.0,30,-99.99,,,0.00,278.0,cwc,2013-05-17 13:30:00,
2013-05-17 07:35:00,50.5,25.3,29.78,SW,229,2.0,-999.0,30,-99.99,,,0.00,295.0,cwc,2013-05-17 13:35:00,
2013-05-17 07:40:00,51.5,25.9,29.78,SW,229,3.0,-999.0,29,-99.99,,,0.00,315.0,cwc,2013-05-17 13:40:00,
2013-05-17 07:45:00,52.3,26.4,29.78,SW,229,1.0,-999.0,28,-99.99,,,0.00,332.0,cwc,2013-05-17 13:45:00,
2013-05-17 07:50:00,53.2,26.9,29.78,SW,229,2.0,-999.0,27,-99.99,,,0.00,346.0,cwc,2013-05-17 13:50:00,
2013-05-17 08:00:00,54.5,27.5,29.77,SW,229,0.0,-999.0,25,-99.99,,,0.00,383.0,cwc,2013-05-17 14:00:00,
2013-05-17 08:10:00,55.7,28.7,29.77,SW,229,2.0,-999.0,25,-99.99,,,0.00,422.0,cwc,2013-05-17 14:10:00,
2013-05-17 08:15:00,56.6,29.6,29.76,SW,229,1.0,-999.0,25,-99.99,,,0.00,439.0,cwc,2013-05-17 14:15:00,
2013-05-17 08:20:00,57.4,30.4,29.76,SW,229,2.0,-999.0,25,-99.99,,,0.00,459.0,cwc,2013-05-17 14:20:00,
2013-05-17 08:25:00,57.9,30.2,29.76,SW,230,2.0,-999.0,23,-99.99,,,0.00,475.0,cwc,2013-05-17 14:25:00,
2013-05-17 08:30:00,58.3,30.9,29.75,SW,234,2.0,-999.0,24,-99.99,,,0.00,487.0,cwc,2013-05-17 14:30:00,
2013-05-17 08:35:00,59.0,31.6,29.75,WSW,244,2.0,-999.0,24,-99.99,,,0.00,512.0,cwc,2013-05-17 14:35:00,
2013-05-17 08:40:00,59.3,31.9,29.75,WSW,244,1.0,-999.0,24,-99.99,,,0.00,527.0,cwc,2013-05-17 14:40:00,
2013-05-17 08:45:00,60.3,32.6,29.75,WSW,244,3.0,-999.0,23,-99.99,,,0.00,543.0,cwc,2013-05-17 14:45:00,
2013-05-17 08:50:00,61.1,33.4,29.75,WSW,244,1.0,-999.0,23,-99.99,,,0.00,557.0,cwc,2013-05-17 14:50:00,
2013-05-17 09:00:00,62.8,35.1,29.74,WSW,246,2.0,-999.0,23,-99.99,,,0.00,592.0,cwc,2013-05-17 15:00:00,
2013-05-17 09:05:00,63.7,35.6,29.74,WSW,244,1.0,-999.0,22,-99.99,,,0.00,613.0,cwc,2013-05-17 15:05:00,
2013-05-17 09:10:00,64.6,36.5,29.74,WSW,244,2.0,-999.0,22,-99.99,,,0.00,628.0,cwc,2013-05-17 15:10:00,
2013-05-17 09:15:00,65.5,37.1,29.73,West,276,2.0,-999.0,21,-99.99,,,0.00,645.0,cwc,2013-05-17 15:15:00,
2013-05-17 09:20:00,66.7,38.3,29.73,West,276,2.0,-999.0,21,-99.99,,,0.00,659.0,cwc,2013-05-17 15:20:00,
2013-05-17 09:25:00,67.8,39.0,29.73,WNW,290,1.0,-999.0,20,-99.99,,,0.00,671.0,cwc,2013-05-17 15:25:00,
2013-05-17 09:30:00,68.9,40.1,29.73,WNW,290,2.0,-999.0,20,-99.99,,,0.00,691.0,cwc,2013-05-17 15:30:00,
2013-05-17 09:40:00,71.6,41.7,29.73,SSW,209,5.0,-999.0,17,-99.99,,,0.00,715.0,cwc,2013-05-17 15:40:00,
2013-05-17 09:45:00,71.9,42.0,29.72,SW,223,1.0,-999.0,17,-99.99,,,0.00,738.0,cwc,2013-05-17 15:45:00,
2013-05-17 09:55:00,72.4,42.5,29.72,SSW,198,2.0,-999.0,17,-99.99,,,0.00,770.0,cwc,2013-05-17 15:55:00,
2013-05-17 10:05:00,73.0,42.8,29.71,SSW,202,7.0,-999.0,16,-99.99,,,0.00,796.0,cwc,2013-05-17 16:05:00,
2013-05-17 10:10:00,72.7,42.5,29.71,South,171,1.0,-999.0,16,-99.99,,,0.00,812.0,cwc,2013-05-17 16:10:00,
2013-05-17 10:15:00,72.8,42.6,29.71,SSW,209,1.0,-999.0,16,-99.99,,,0.00,826.0,cwc,2013-05-17 16:15:00,
2013-05-17 10:25:00,73.7,43.5,29.71,South,181,0.0,-999.0,16,-99.99,,,0.00,858.0,cwc,2013-05-17 16:25:00,
2013-05-17 10:30:00,73.9,43.3,29.70,West,281,0.0,-999.0,15,-99.99,,,0.00,879.0,cwc,2013-05-17 16:30:00,
2013-05-17 10:35:00,74.3,43.7,29.70,SSW,207,7.0,-999.0,15,-99.99,,,0.00,907.0,cwc,2013-05-17 16:35:00,
2013-05-17 10:40:00,74.8,44.2,29.70,SSW,199,5.0,-999.0,15,-99.99,,,0.00,932.0,cwc,2013-05-17 16:40:00,
2013-05-17 10:45:00,74.7,44.1,29.70,SW,216,8.0,-999.0,15,-99.99,,,0.00,956.0,cwc,2013-05-17 16:45:00,
2013-05-17 10:50:00,74.4,44.2,29.70,South,188,0.0,-999.0,16,-99.99,,,0.00,983.0,cwc,2013-05-17 16:50:00,
2013-05-17 10:55:00,75.0,44.4,29.70,NNW,336,5.0,-999.0,15,-99.99,,,0.00,1002.0,cwc,2013-05-17 16:55:00,
2013-05-17 11:00:00,75.6,45.0,29.70,SW,214,12.0,-999.0,15,-99.99,,,0.00,872.0,cwc,2013-05-17 17:00:00,
2013-05-17 11:05:00,75.3,44.7,29.70,WSW,245,7.0,-999.0,15,-99.99,,,0.00,947.0,cwc,2013-05-17 17:05:00,
2013-05-17 11:10:00,75.0,44.4,29.70,South,169,4.0,-999.0,15,-99.99,,,0.00,795.0,cwc,2013-05-17 17:10:00,
2013-05-17 11:15:00,75.1,44.5,29.70,South,171,8.0,-999.0,15,-99.99,,,0.00,904.0,cwc,2013-05-17 17:15:00,
2013-05-17 11:20:00,75.5,44.9,29.70,SSW,198,3.0,-999.0,15,-99.99,,,0.00,1044.0,cwc,2013-05-17 17:20:00,
2013-05-17 11:25:00,76.2,45.6,29.69,SW,225,10.0,-999.0,15,-99.99,,,0.00,976.0,cwc,2013-05-17 17:25:00,
2013-05-17 11:30:00,76.5,45.5,29.69,SSW,202,7.0,-999.0,14,-99.99,,,0.00,731.0,cwc,2013-05-17 17:30:00,
2013-05-17 11:35:00,76.0,45.0,29.69,SSW,200,8.0,-999.0,14,-99.99,,,0.00,635.0,cwc,2013-05-17 17:35:00,
2013-05-17 11:40:00,75.4,44.4,29.69,South,188,6.0,-999.0,14,-99.99,,,0.00,510.0,cwc,2013-05-17 17:40:00,
2013-05-17 11:45:00,75.0,44.4,29.68,South,173,0.0,-999.0,15,-99.99,,,0.00,824.0,cwc,2013-05-17 17:45:00,
2013-05-17 11:50:00,75.5,44.9,29.69,South,175,2.0,-999.0,15,-99.99,,,0.00,693.0,cwc,2013-05-17 17:50:00,
2013-05-17 11:55:00,75.7,44.7,29.68,South,182,11.0,-999.0,14,-99.99,,,0.00,580.0,cwc,2013-05-17 17:55:00,
2013-05-17 12:00:00,75.5,44.5,29.68,West,260,6.0,-999.0,14,-99.99,,,0.00,640.0,cwc,2013-05-17 18:00:00,
2013-05-17 12:05:00,75.8,44.8,29.68,SSW,206,7.0,-999.0,14,-99.99,,,0.00,1174.0,cwc,2013-05-17 18:05:00,
2013-05-17 12:10:00,76.2,45.2,29.68,SSE,157,1.0,-999.0,14,-99.99,,,0.00,991.0,cwc,2013-05-17 18:10:00,
2013-05-17 12:15:00,76.8,45.8,29.68,West,266,7.0,-999.0,14,-99.99,,,0.00,944.0,cwc,2013-05-17 18:15:00,
2013-05-17 12:20:00,77.1,45.8,29.67,SW,217,15.0,-999.0,13,-99.99,,,0.00,1136.0,cwc,2013-05-17 18:20:00,
2013-05-17 12:25:00,76.9,45.9,29.67,SSW,213,7.0,-999.0,14,-99.99,,,0.00,935.0,cwc,2013-05-17 18:25:00,
2013-05-17 12:30:00,77.0,45.7,29.67,SSE,161,2.0,-999.0,13,-99.99,,,0.00,1078.0,cwc,2013-05-17 18:30:00,
2013-05-17 12:35:00,77.4,46.1,29.67,SSW,197,9.0,-999.0,13,-99.99,,,0.00,1194.0,cwc,2013-05-17 18:35:00,
2013-05-17 12:40:00,77.6,46.3,29.67,South,178,6.0,-999.0,13,-99.99,,,0.00,1086.0,cwc,2013-05-17 18:40:00,
2013-05-17 12:45:00,78.2,47.2,29.66,WNW,284,5.0,-999.0,14,-99.99,,,0.00,1157.0,cwc,2013-05-17 18:45:00,
2013-05-17 12:50:00,78.7,47.0,29.66,SSW,196,7.0,-999.0,12,-99.99,,,0.00,1151.0,cwc,2013-05-17 18:50:00,
2013-05-17 13:00:00,78.0,46.7,29.65,SW,225,5.0,-999.0,13,-99.99,,,0.00,482.0,cwc,2013-05-17 19:00:00,
2013-05-17 13:05:00,77.7,46.4,29.65,ENE,61,0.0,-999.0,13,-99.99,,,0.00,475.0,cwc,2013-05-17 19:05:00,
2013-05-17 13:10:00,77.8,46.5,29.65,SW,215,4.0,-999.0,13,-99.99,,,0.00,476.0,cwc,2013-05-17 19:10:00,
2013-05-17 13:15:00,77.9,46.6,29.65,South,188,1.0,-999.0,13,-99.99,,,0.00,784.0,cwc,2013-05-17 19:15:00,
2013-05-17 13:20:00,78.3,47.0,29.65,East,92,1.0,-999.0,13,-99.99,,,0.00,717.0,cwc,2013-05-17 19:20:00,
2013-05-17 13:25:00,78.7,47.0,29.65,West,267,4.0,-999.0,12,-99.99,,,0.00,591.0,cwc,2013-05-17 19:25:00,
2013-05-17 13:30:00,79.1,47.8,29.64,North,360,0.0,-999.0,13,-99.99,,,0.00,534.0,cwc,2013-05-17 19:30:00,
2013-05-17 13:35:00,79.8,48.5,29.64,SE,141,0.0,-999.0,13,-99.99,,,0.00,775.0,cwc,2013-05-17 19:35:00,
2013-05-17 13:40:00,80.5,48.8,29.64,NE,36,0.0,-999.0,12,-99.99,,,0.00,578.0,cwc,2013-05-17 19:40:00,
2013-05-17 13:45:00,80.9,49.6,29.63,NNE,18,9.0,-999.0,13,-99.99,,,0.00,700.0,cwc,2013-05-17 19:45:00,
2013-05-17 13:50:00,81.0,49.7,29.63,NNW,331,3.0,-999.0,13,-99.99,,,0.00,828.0,cwc,2013-05-17 19:50:00,
2013-05-17 13:55:00,81.1,49.4,29.63,NNE,30,2.0,-999.0,12,-99.99,,,0.00,1078.0,cwc,2013-05-17 19:55:00,
2013-05-17 14:00:00,81.4,49.7,29.63,NE,42,0.0,-999.0,12,-99.99,,,0.00,838.0,cwc,2013-05-17 20:00:00,
2013-05-17 14:05:00,81.7,50.0,29.63,ENE,64,1.0,-999.0,12,-99.99,,,0.00,591.0,cwc,2013-05-17 20:05:00,
2013-05-17 14:10:00,81.2,49.5,29.63,NNE,25,0.0,-999.0,12,-99.99,,,0.00,541.0,cwc,2013-05-17 20:10:00,
2013-05-17 14:15:00,80.4,48.7,29.62,WSW,245,1.0,-999.0,12,-99.99,,,0.00,492.0,cwc,2013-05-17 20:15:00,
2013-05-17 14:20:00,80.2,48.5,29.62,WSW,245,2.0,-999.0,12,-99.99,,,0.00,552.0,cwc,2013-05-17 20:20:00,
2013-05-17 14:25:00,80.3,48.3,29.62,SSE,159,1.0,-999.0,11,-99.99,,,0.00,510.0,cwc,2013-05-17 20:25:00,
2013-05-17 14:30:00,80.3,48.3,29.62,SW,232,7.0,-999.0,11,-99.99,,,0.00,645.0,cwc,2013-05-17 20:30:00,
2013-05-17 14:35:00,80.5,48.5,29.62,SW,234,5.0,-999.0,11,-99.99,,,0.00,1194.0,cwc,2013-05-17 20:35:00,
2013-05-17 14:40:00,81.5,49.5,29.61,South,176,5.0,-999.0,11,-99.99,,,0.00,1178.0,cwc,2013-05-17 20:40:00,
2013-05-17 14:45:00,82.1,50.1,29.61,South,184,6.0,-999.0,11,-99.99,,,0.00,984.0,cwc,2013-05-17 20:45:00,
2013-05-17 14:50:00,82.3,49.9,29.61,SW,223,4.0,-999.0,10,-99.99,,,0.00,956.0,cwc,2013-05-17 20:50:00,
2013-05-17 14:55:00,82.2,49.8,29.61,SSW,213,9.0,-999.0,10,-99.99,,,0.00,998.0,cwc,2013-05-17 20:55:00,
2013-05-17 15:00:00,82.3,49.9,29.61,SW,225,6.0,-999.0,10,-99.99,,,0.00,1034.0,cwc,2013-05-17 21:00:00,
2013-05-17 15:05:00,82.3,49.5,29.61,WNW,298,0.0,-999.0,9,-99.99,,,0.00,958.0,cwc,2013-05-17 21:05:00,
2013-05-17 15:10:00,82.9,50.5,29.61,SW,229,8.0,-999.0,10,-99.99,,,0.00,932.0,cwc,2013-05-17 21:10:00,
2013-05-17 15:15:00,82.6,50.2,29.61,South,171,5.0,-999.0,10,-99.99,,,0.00,768.0,cwc,2013-05-17 21:15:00,
2013-05-17 15:20:00,82.3,49.9,29.60,SSE,148,0.0,-999.0,10,-99.99,,,0.00,708.0,cwc,2013-05-17 21:20:00,
2013-05-17 15:25:00,82.3,49.9,29.60,SW,218,10.0,-999.0,10,-99.99,,,0.00,715.0,cwc,2013-05-17 21:25:00,
2013-05-17 15:30:00,81.7,49.3,29.59,West,268,9.0,-999.0,10,-99.99,,,0.00,810.0,cwc,2013-05-17 21:30:00,
2013-05-17 15:35:00,81.8,49.4,29.59,South,190,10.0,-999.0,10,-99.99,,,0.00,749.0,cwc,2013-05-17 21:35:00,
2013-05-17 15:40:00,82.0,49.6,29.59,SW,236,7.0,-999.0,10,-99.99,,,0.00,793.0,cwc,2013-05-17 21:40:00,
2013-05-17 15:45:00,81.7,49.3,29.60,SSW,193,11.0,-999.0,10,-99.99,,,0.00,766.0,cwc,2013-05-17 21:45:00,
2013-05-17 15:50:00,81.8,49.4,29.59,WSW,237,0.0,-999.0,10,-99.99,,,0.00,807.0,cwc,2013-05-17 21:50:00,
2013-05-17 15:55:00,81.8,49.8,29.58,SE,138,1.0,-999.0,11,-99.99,,,0.00,789.0,cwc,2013-05-17 21:55:00,
2013-05-17 16:00:00,82.2,50.2,29.58,SW,221,9.0,-999.0,11,-99.99,,,0.00,770.0,cwc,2013-05-17 22:00:00,
2013-05-17 16:10:00,82.6,50.6,29.58,SSW,205,14.0,-999.0,11,-99.99,,,0.00,679.0,cwc,2013-05-17 22:10:00,
2013-05-17 16:15:00,82.3,50.3,29.58,SW,222,12.0,-999.0,11,-99.99,,,0.00,722.0,cwc,2013-05-17 22:15:00,
2013-05-17 16:20:00,81.8,49.8,29.58,South,187,10.0,-999.0,11,-99.99,,,0.00,707.0,cwc,2013-05-17 22:20:00,
2013-05-17 16:25:00,82.1,50.1,29.58,SSW,210,7.0,-999.0,11,-99.99,,,0.00,689.0,cwc,2013-05-17 22:25:00,
2013-05-17 16:30:00,82.4,50.4,29.57,SSE,161,8.0,-999.0,11,-99.99,,,0.00,677.0,cwc,2013-05-17 22:30:00,
2013-05-17 16:35:00,82.4,50.4,29.57,South,190,7.0,-999.0,11,-99.99,,,0.00,663.0,cwc,2013-05-17 22:35:00,
2013-05-17 16:40:00,82.5,50.5,29.57,SW,228,16.0,-999.0,11,-99.99,,,0.00,656.0,cwc,2013-05-17 22:40:00,
2013-05-17 16:45:00,82.6,50.2,29.57,SW,226,8.0,-999.0,10,-99.99,,,0.00,631.0,cwc,2013-05-17 22:45:00,
2013-05-17 16:50:00,82.4,50.0,29.56,SSW,207,7.0,-999.0,10,-99.99,,,0.00,60.0,cwc,2013-05-17 22:50:00,
2013-05-17 16:55:00,81.4,49.4,29.56,South,191,6.0,-999.0,11,-99.99,,,0.00,69.0,cwc,2013-05-17 22:55:00,
2013-05-17 17:00:00,81.2,49.2,29.57,SSW,198,17.0,-999.0,11,-99.99,,,0.00,62.0,cwc,2013-05-17 23:00:00,
2013-05-17 17:05:00,80.3,47.9,29.56,SSW,213,9.0,-999.0,10,-99.99,,,0.00,88.0,cwc,2013-05-17 23:05:00,
2013-05-17 17:10:00,80.7,48.7,29.56,SSW,206,8.0,-999.0,11,-99.99,,,0.00,555.0,cwc,2013-05-17 23:10:00,
2013-05-17 17:15:00,81.8,49.4,29.56,SW,222,11.0,-999.0,10,-99.99,,,0.00,489.0,cwc,2013-05-17 23:15:00,
2013-05-17 17:25:00,82.0,49.6,29.56,South,179,5.0,-999.0,10,-99.99,,,0.00,492.0,cwc,2013-05-17 23:25:00,
2013-05-17 17:30:00,82.4,50.0,29.56,WSW,239,9.0,-999.0,10,-99.99,,,0.00,478.0,cwc,2013-05-17 23:30:00,
2013-05-17 17:35:00,82.4,50.0,29.56,SW,226,19.0,-999.0,10,-99.99,,,0.00,461.0,cwc,2013-05-17 23:35:00,
2013-05-17 17:40:00,81.9,49.5,29.56,WSW,238,9.0,-999.0,10,-99.99,,,0.00,443.0,cwc,2013-05-17 23:40:00,
2013-05-17 17:45:00,81.9,49.5,29.56,SW,218,2.0,-999.0,10,-99.99,,,0.00,427.0,cwc,2013-05-17 23:45:00,
2013-05-17 17:50:00,82.1,49.7,29.56,SW,234,13.0,-999.0,10,-99.99,,,0.00,415.0,cwc,2013-05-17 23:50:00,
2013-05-17 17:55:00,81.8,49.4,29.56,SSW,198,10.0,-999.0,10,-99.99,,,0.00,169.0,cwc,2013-05-17 23:55:00,
2013-05-17 18:00:00,81.2,48.8,29.56,SSW,206,9.0,-999.0,10,-99.99,,,0.00,47.0,cwc,2013-05-18 00:00:00,
2013-05-17 18:05:00,80.4,48.0,29.55,SW,214,4.0,-999.0,10,-99.99,,,0.00,51.0,cwc,2013-05-18 00:05:00,
2013-05-17 18:10:00,79.9,47.5,29.55,SW,224,8.0,-999.0,10,-99.99,,,0.00,49.0,cwc,2013-05-18 00:10:00,
2013-05-17 18:15:00,79.7,47.7,29.55,SSW,209,7.0,-999.0,11,-99.99,,,0.00,56.0,cwc,2013-05-18 00:15:00,
2013-05-17 18:20:00,79.5,47.5,29.55,SSW,213,6.0,-999.0,11,-99.99,,,0.00,60.0,cwc,2013-05-18 00:20:00,
2013-05-17 18:30:00,79.4,47.4,29.55,South,182,15.0,-999.0,11,-99.99,,,0.00,42.0,cwc,2013-05-18 00:30:00,
2013-05-17 18:35:00,79.4,47.4,29.55,SSW,213,7.0,-999.0,11,-99.99,,,0.00,37.0,cwc,2013-05-18 00:35:00,
2013-05-17 18:40:00,79.3,47.3,29.55,South,171,9.0,-999.0,11,-99.99,,,0.00,37.0,cwc,2013-05-18 00:40:00,
2013-05-17 18:45:00,79.2,47.2,29.54,SSW,212,12.0,-999.0,11,-99.99,,,0.00,32.0,cwc,2013-05-18 00:45:00,
2013-05-17 18:50:00,79.1,47.1,29.54,SSW,211,9.0,-999.0,11,-99.99,,,0.00,30.0,cwc,2013-05-18 00:50:00,
2013-05-17 18:55:00,79.0,47.0,29.54,SSW,204,7.0,-999.0,11,-99.99,,,0.00,28.0,cwc,2013-05-18 00:55:00,
2013-05-17 19:00:00,79.0,47.0,29.54,South,186,10.0,-999.0,11,-99.99,,,0.00,26.0,cwc,2013-05-18 01:00:00,
2013-05-17 19:05:00,78.9,46.9,29.54,South,180,8.0,-999.0,11,-99.99,,,0.00,26.0,cwc,2013-05-18 01:05:00,
2013-05-17 19:10:00,78.8,46.8,29.54,WSW,254,3.0,-999.0,11,-99.99,,,0.00,26.0,cwc,2013-05-18 01:10:00,
2013-05-17 19:15:00,78.9,46.9,29.54,SW,219,10.0,-999.0,11,-99.99,,,0.00,26.0,cwc,2013-05-18 01:15:00,
2013-05-17 19:20:00,79.0,47.0,29.55,SSW,206,10.0,-999.0,11,-99.99,,,0.00,23.0,cwc,2013-05-18 01:20:00,
2013-05-17 19:25:00,78.8,46.8,29.55,SSW,193,8.0,-999.0,11,-99.99,,,0.00,19.0,cwc,2013-05-18 01:25:00,
2013-05-17 19:30:00,78.7,46.7,29.55,SW,218,8.0,-999.0,11,-99.99,,,0.00,18.0,cwc,2013-05-18 01:30:00,
2013-05-17 19:35:00,78.3,46.6,29.55,SSW,202,8.0,-999.0,12,-99.99,,,0.00,16.0,cwc,2013-05-18 01:35:00,
2013-05-17 19:40:00,78.0,46.3,29.55,SW,215,7.0,-999.0,12,-99.99,,,0.00,12.0,cwc,2013-05-18 01:40:00,
2013-05-17 19:45:00,77.8,46.1,29.55,SSW,200,5.0,-999.0,12,-99.99,,,0.00,12.0,cwc,2013-05-18 01:45:00,
2013-05-17 19:50:00,77.5,45.8,29.55,SSW,205,4.0,-999.0,12,-99.99,,,0.00,9.0,cwc,2013-05-18 01:50:00,
2013-05-17 19:55:00,77.2,45.5,29.55,South,191,7.0,-999.0,12,-99.99,,,0.00,5.0,cwc,2013-05-18 01:55:00,
2013-05-17 20:00:00,76.9,45.2,29.56,South,188,0.0,-999.0,12,-99.99,,,0.00,0.0,cwc,2013-05-18 02:00:00,
2013-05-17 20:05:00,76.6,44.9,29.56,South,189,2.0,-999.0,12,-99.99,,,0.00,0.0,cwc,2013-05-18 02:05:00,
2013-05-17 20:10:00,76.5,45.2,29.56,SW,221,8.0,-999.0,13,-99.99,,,0.00,0.0,cwc,2013-05-18 02:10:00,
2013-05-17 20:15:00,76.6,45.3,29.56,SSW,206,7.0,-999.0,13,-99.99,,,0.00,0.0,cwc,2013-05-18 02:15:00,
2013-05-17 20:20:00,76.7,45.4,29.57,SSW,209,7.0,-999.0,13,-99.99,,,0.00,0.0,cwc,2013-05-18 02:20:00,
2013-05-17 20:25:00,76.7,45.4,29.57,SSW,210,3.0,-999.0,13,-99.99,,,0.00,0.0,cwc,2013-05-18 02:25:00,
2013-05-17 20:30:00,76.7,45.4,29.57,SW,234,4.0,-999.0,13,-99.99,,,0.00,0.0,cwc,2013-05-18 02:30:00,
2013-05-17 20:35:00,76.7,45.4,29.57,South,179,4.0,-999.0,13,-99.99,,,0.00,0.0,cwc,2013-05-18 02:35:00,
2013-05-17 20:40:00,76.6,45.3,29.57,SW,223,4.0,-999.0,13,-99.99,,,0.00,0.0,cwc,2013-05-18 02:40:00,
2013-05-17 20:45:00,76.5,45.2,29.57,South,169,3.0,-999.0,13,-99.99,,,0.00,0.0,cwc,2013-05-18 02:45:00,
2013-05-17 20:50:00,76.4,45.1,29.57,South,169,0.0,-999.0,13,-99.99,,,0.00,0.0,cwc,2013-05-18 02:50:00,
2013-05-17 20:55:00,76.3,45.0,29.57,South,170,0.0,-999.0,13,-99.99,,,0.00,0.0,cwc,2013-05-18 02:55:00,
2013-05-17 21:00:00,76.0,44.7,29.58,South,170,0.0,-999.0,13,-99.99,,,0.00,0.0,cwc,2013-05-18 03:00:00,
2013-05-17 21:05:00,75.8,44.5,29.58,South,170,2.0,-999.0,13,-99.99,,,0.00,0.0,cwc,2013-05-18 03:05:00,
2013-05-17 21:10:00,75.5,44.5,29.58,South,170,0.0,-999.0,14,-99.99,,,0.00,0.0,cwc,2013-05-18 03:10:00,
2013-05-17 21:15:00,75.2,44.2,29.58,SW,214,7.0,-999.0,14,-99.99,,,0.00,0.0,cwc,2013-05-18 03:15:00,
2013-05-17 21:20:00,75.2,44.2,29.58,SW,222,1.0,-999.0,14,-99.99,,,0.00,0.0,cwc,2013-05-18 03:20:00,
2013-05-17 21:25:00,75.3,44.3,29.59,SW,223,2.0,-999.0,14,-99.99,,,0.00,0.0,cwc,2013-05-18 03:25:00,
2013-05-17 21:30:00,75.2,44.2,29.59,SW,222,4.0,-999.0,14,-99.99,,,0.00,0.0,cwc,2013-05-18 03:30:00,
2013-05-17 21:35:00,75.1,44.5,29.60,SW,220,1.0,-999.0,15,-99.99,,,0.00,0.0,cwc,2013-05-18 03:35:00,
2013-05-17 21:45:00,75.4,44.8,29.59,NW,315,0.0,-999.0,15,-99.99,,,0.00,0.0,cwc,2013-05-18 03:45:00,
2013-05-17 21:50:00,75.4,44.8,29.60,WSW,242,2.0,-999.0,15,-99.99,,,0.00,0.0,cwc,2013-05-18 03:50:00,
2013-05-17 21:55:00,75.3,44.7,29.59,WSW,242,0.0,-999.0,15,-99.99,,,0.00,0.0,cwc,2013-05-18 03:55:00,
2013-05-17 22:00:00,75.3,44.7,29.60,WSW,242,0.0,-999.0,15,-99.99,,,0.00,0.0,cwc,2013-05-18 04:00:00,
2013-05-17 22:05:00,74.9,44.3,29.60,WSW,241,0.0,-999.0,15,-99.99,,,0.00,0.0,cwc,2013-05-18 04:05:00,
2013-05-17 22:10:00,74.6,44.0,29.60,WSW,242,0.0,-999.0,15,-99.99,,,0.00,0.0,cwc,2013-05-18 04:10:00,
2013-05-17 22:15:00,74.1,43.9,29.61,WSW,242,1.0,-999.0,16,-99.99,,,0.00,0.0,cwc,2013-05-18 04:15:00,
2013-05-17 22:20:00,73.9,43.7,29.61,WSW,242,4.0,-999.0,16,-99.99,,,0.00,0.0,cwc,2013-05-18 04:20:00,
2013-05-17 22:25:00,74.0,43.8,29.61,WSW,242,0.0,-999.0,16,-99.99,,,0.00,0.0,cwc,2013-05-18 04:25:00,
2013-05-17 22:30:00,74.2,43.6,29.60,WSW,242,0.0,-999.0,15,-99.99,,,0.00,0.0,cwc,2013-05-18 04:30:00,
2013-05-17 22:35:00,74.1,42.8,29.61,SW,223,9.0,-999.0,13,-99.99,,,0.00,0.0,cwc,2013-05-18 04:35:00,
2013-05-17 22:40:00,74.4,42.7,29.62,WSW,237,5.0,-999.0,12,-99.99,,,0.00,0.0,cwc,2013-05-18 04:40:00,
2013-05-17 22:45:00,74.5,42.8,29.62,WSW,241,1.0,-999.0,12,-99.99,,,0.00,0.0,cwc,2013-05-18 04:45:00,
2013-05-17 22:50:00,74.5,42.5,29.62,WSW,242,0.0,-999.0,11,-99.99,,,0.00,0.0,cwc,2013-05-18 04:50:00,
2013-05-17 22:55:00,74.3,42.3,29.63,WSW,242,0.0,-999.0,11,-99.99,,,0.00,0.0,cwc,2013-05-18 04:55:00,
2013-05-17 23:00:00,74.1,42.1,29.63,WSW,241,3.0,-999.0,11,-99.99,,,0.00,0.0,cwc,2013-05-18 05:00:00,
2013-05-17 23:05:00,73.8,41.8,29.63,SW,226,1.0,-999.0,11,-99.99,,,0.00,0.0,cwc,2013-05-18 05:05:00,
2013-05-17 23:10:00,73.6,41.6,29.63,SW,226,1.0,-999.0,11,-99.99,,,0.00,0.0,cwc,2013-05-18 05:10:00,
2013-05-17 23:15:00,73.3,41.3,29.64,SW,226,0.0,-999.0,11,-99.99,,,0.00,0.0,cwc,2013-05-18 05:15:00,
2013-05-17 23:20:00,73.1,41.1,29.63,SW,226,0.0,-999.0,11,-99.99,,,0.00,0.0,cwc,2013-05-18 05:20:00,
2013-05-17 23:25:00,72.8,41.1,29.63,ENE,57,2.0,-999.0,12,-99.99,,,0.00,0.0,cwc,2013-05-18 05:25:00,
2013-05-17 23:30:00,72.3,40.3,29.64,WNW,285,0.0,-999.0,11,-99.99,,,0.00,0.0,cwc,2013-05-18 05:30:00,
2013-05-17 23:35:00,72.1,40.1,29.64,WNW,285,0.0,-999.0,11,-99.99,,,0.00,0.0,cwc,2013-05-18 05:35:00,
2013-05-17 23:40:00,71.8,39.8,29.65,West,281,5.0,-999.0,11,-99.99,,,0.00,0.0,cwc,2013-05-18 05:40:00,
2013-05-17 23:45:00,71.5,39.8,29.65,WNW,282,4.0,-999.0,12,-99.99,,,0.00,0.0,cwc,2013-05-18 05:45:00,
2013-05-17 23:55:00,70.9,39.2,29.65,West,281,1.0,-999.0,12,-99.99,,,0.00,0.0,cwc,2013-05-18 05:55:00,